This demonstration page uses our WeatherBlox Daily Observations layout. Learn more.

Left ArrowRight Arrow

Hourly Observations for May 27, 2022

Temp ( °F °C ) Dew Point ( °F °C ) Humidity (%) Winds ( mph kmh ) Pressure ( in mb ) Visibility ( mi km ) Precip ( " mm )
12:15 am 00:15 undefined 61 16 60 15.8 99 99 Calm 29.78 1008 10 16 0.00 0.00
12:35 am 00:35 undefined 61 16.2 61 16 99 99 S 8 13 29.78 1008 10 16 0.00 0.00
12:55 am 00:55 undefined 61 16.3 60 15.8 97 97 SSW 5 7 29.77 1008 10 16 0.01 0.25
1:15 am 01:15 undefined 61 16.1 60 15.4 96 96 SSW 8 13 29.77 1008 10 16 0.00 0.00
1:35 am 01:35 undefined 60 15.8 59 15.1 96 96 Calm 29.75 1007 10 16 0.00 0.00
1:55 am 01:55 undefined 60 15.4 59 14.8 96 96 Calm 29.75 1008 10 16 0.00 0.00
2:15 am 02:15 undefined 60 15.3 58 14.7 96 96 SSW 8 13 29.76 1008 10 16 0.00 0.00
2:35 am 02:35 undefined 59 15 58 14.3 96 96 SSW 8 13 29.75 1008 10 16 0.00 0.00
2:55 am 02:55 undefined 58 14.7 58 14.2 97 97 S 5 7 29.75 1008 10 16 0.00 0.00
3:15 am 03:15 undefined 58 14.2 57 13.8 97 97 Calm 29.76 1008 10 16 0.00 0.00
3:35 am 03:35 undefined 57 14.1 57 13.8 98 98 Calm 29.76 1008 10 16 0.00 0.00
3:55 am 03:55 undefined 57 13.7 56 13.5 99 99 Calm 29.75 1007 7 11 0.00 0.00
4:15 am 04:15 undefined 56 13.5 56 13.3 99 99 Calm 29.76 1008 7 11 0.00 0.00
4:35 am 04:35 undefined 56 13.5 56 13.3 99 99 Calm 29.76 1008 7 11 0.00 0.00
4:55 am 04:55 undefined 56 13.5 56 13.1 97 97 Calm 29.76 1008 7 11 0.00 0.00
5:15 am 05:15 undefined 55 13 55 12.8 99 99 Calm 29.76 1008 7 11 0.00 0.00
5:35 am 05:35 undefined 56 13.1 55 13 99 99 Calm 29.76 1008 7 11 0.00 0.00
5:55 am 05:55 Mostly Clear with Mist and Fog 55 13 55 12.7 98 98 Calm 29.76 1008 5 8 0.00 0.00
6:15 am 06:15 Mostly Clear with Mist and Fog 55 12.8 55 12.6 99 99 Calm 29.76 1008 5 8 0.00 0.00
6:35 am 06:35 Partly Cloudy with Mist and Fog 55 12.5 54 12.4 99 99 Calm 29.76 1008 4 6 0.00 0.00
6:55 am 06:55 Partly Cloudy with Mist and Fog 55 13 55 12.8 99 99 Calm 29.77 1008 4 6 0.00 0.00
7:15 am 07:15 Partly Cloudy with Mist and Fog 56 13.2 56 13.1 99 99 Calm 29.78 1008 3 5 0.00 0.00
7:35 am 07:35 Partly Cloudy with Mist and Fog 56 13.6 56 13.5 99 99 Calm 29.78 1008 5 8 0.00 0.00
7:55 am 07:55 undefined 57 14.1 57 13.8 98 98 Calm 29.78 1008 7 11 0.00 0.00
8:15 am 08:15 undefined 58 14.5 57 14 97 97 Calm 29.78 1008 10 16 0.00 0.00
8:35 am 08:35 undefined 58 14.7 57 14.1 96 96 Calm 29.76 1008 10 16 0.00 0.00
8:55 am 08:55 undefined 59 14.9 57 14.1 95 95 Calm 29.77 1008 10 16 0.00 0.00
9:15 am 09:15 undefined 59 14.9 57 14 94 94 Calm 29.77 1008 10 16 0.00 0.00
9:35 am 09:35 undefined 59 15 57 14 94 94 Calm 29.77 1008 10 16 0.00 0.00
9:55 am 09:55 undefined 59 15.2 57 14.1 93 93 Calm 29.77 1008 10 16 0.00 0.00
10:15 am 10:15 Partly Cloudy with Drizzle 60 15.3 57 14.1 93 93 Calm 29.77 1008 10 16 0.00 0.00
10:35 am 10:35 Partly Cloudy with Rain 59 14.9 57 14 94 94 Calm 29.77 1008 4 6 0.06 1.52
10:55 am 10:55 Partly Cloudy with Drizzle 59 15.2 58 14.4 95 95 Calm 29.77 1008 10 16 0.07 1.78
11:15 am 11:15 undefined 59 15.2 58 14.2 94 94 W 8 13 29.77 1008 10 16 0.00 0.00
11:35 am 11:35 undefined 60 15.7 58 14.4 92 92 Calm 29.76 1008 10 16 0.00 0.00
11:55 am 11:55 undefined 63 17.2 59 15.1 88 88 Calm 29.76 1008 10 16 0.00 0.00
12:15 pm 12:15 undefined 64 17.8 57 14 79 79 Calm 29.76 1008 10 16 0.00 0.00
12:35 pm 12:35 undefined 65 18.2 57 14 77 77 W 5 7 29.76 1008 10 16 0.00 0.00
12:55 pm 12:55 undefined 63 17.4 56 13.6 79 79 W 3 6 29.77 1008 10 16 0.00 0.00
1:15 pm 13:15 undefined 66 18.9 58 14.7 77 77 Calm 29.76 1008 10 16 0.00 0.00
1:35 pm 13:35 undefined 65 18.5 57 13.8 74 74 W 7 11 29.76 1008 10 16 0.00 0.00
1:55 pm 13:55 undefined 65 18.5 57 14 75 75 W 12 19 29.75 1007 10 16 0.00 0.00
2:15 pm 14:15 undefined 64 18 57 13.9 77 77 W 7 11 29.75 1008 10 16 0.00 0.00
2:35 pm 14:35 undefined 65 18.5 57 14 75 75 W 13 20 29.75 1007 10 16 0.00 0.00
2:55 pm 14:55 Partly Cloudy with Rain 64 17.8 57 14.1 79 79 W 12 19 29.75 1008 10 16 0.00 0.00
3:15 pm 15:15 undefined 65 18.1 59 15.1 83 83 Calm 29.75 1008 10 16 0.00 0.00
3:35 pm 15:35 undefined 68 20.1 60 15.3 74 74 W 8 13 29.75 1007 10 16 0.00 0.00
3:55 pm 15:55 undefined 67 19.6 59 15 75 75 W 3 6 29.74 1007 10 16 0.00 0.00
4:15 pm 16:15 undefined 67 19.5 58 14.5 73 73 W 7 11 29.74 1007 10 16 0.00 0.00
4:35 pm 16:35 undefined 68 20.2 58 14.5 70 70 WNW 13 20 29.74 1007 10 16 0.00 0.00
4:55 pm 16:55 undefined 66 18.9 58 14.4 75 75 WNW 12 19 29.75 1007 10 16 0.00 0.00
5:15 pm 17:15 Partly Cloudy with Light Rain 63 17.2 60 15.3 89 89 WNW 8 13 29.77 1008 7 11 0.00 0.00
5:35 pm 17:35 Partly Cloudy with Light Rain 63 17 60 15.8 93 93 WNW 10 17 29.77 1008 10 16 0.00 0.00
5:55 pm 17:55 undefined 63 17.1 61 15.9 93 93 NW 12 19 29.78 1008 10 16 0.00 0.00
6:15 pm 18:15 undefined 62 16.6 60 15.3 92 92 NW 12 19 29.78 1008 10 16 0.00 0.00
6:35 pm 18:35 undefined 60 15.7 58 14.2 91 91 NW 14 22 29.79 1009 10 16 0.00 0.00
6:55 pm 18:55 undefined 59 14.8 56 13.4 91 91 NW 12 19 29.80 1009 10 16 0.00 0.00
7:15 pm 19:15 undefined 57 13.7 55 12.5 93 93 NW 15 24 29.82 1010 10 16 0.00 0.00
7:35 pm 19:35 undefined 55 13 53 11.7 92 92 NW 13 20 29.83 1010 10 16 0.00 0.00
7:55 pm 19:55 undefined 55 12.8 53 11.5 92 92 NW 12 19 29.84 1011 10 16 0.00 0.00
8:15 pm 20:15 undefined 55 13 53 11.5 91 91 NNW 14 22 29.85 1011 10 16 0.00 0.00
8:35 pm 20:35 undefined 55 13 52 11.1 88 88 NNW 12 19 29.86 1011 10 16 0.00 0.00
8:55 pm 20:55 undefined 55 12.8 52 11 89 89 NW 12 19 29.86 1011 10 16 0.00 0.00
9:15 pm 21:15 undefined 55 13 51 10.8 87 87 NW 10 17 29.87 1012 10 16 0.00 0.00
9:35 pm 21:35 undefined 55 12.8 51 10.8 88 88 NW 10 17 29.87 1012 10 16 0.00 0.00
9:55 pm 21:55 undefined 55 12.6 51 10.5 87 87 NW 12 19 29.88 1012 10 16 0.00 0.00
10:15 pm 22:15 undefined 55 12.8 51 10.6 87 87 NW 9 15 29.89 1012 10 16 0.00 0.00
10:35 pm 22:35 undefined 55 12.5 50 9.8 84 84 NW 9 15 29.90 1013 10 16 0.00 0.00
10:55 pm 22:55 undefined 55 12.5 50 9.8 84 84 NW 10 17 29.90 1013 10 16 0.00 0.00
11:15 pm 23:15 undefined 54 12.3 49 9.5 83 83 NW 7 11 29.91 1013 10 16 0.00 0.00
11:35 pm 23:35 undefined 54 12 49 9.2 83 83 NW 8 13 29.92 1013 10 16 0.00 0.00
11:55 pm 23:55 undefined 53 11.6 49 9.2 85 85 Calm 29.92 1013 10 16 0.00 0.00

Powered by AerisWeather